M I D A S
Marine Information and Data Acquisition System
Tripno 812 of the Zeeleeuw from 2004-11-24 07:45:28 to 2004-11-24 14:29:23
Back to CruiseResearch ActivitiesStationsMapUnderway DataData graphs

EquipmentUnitsComments
TimeDGPSUTC
LatitudeDGPSDM.mWGS84
LongitudeDGPSDM.mWGS84
SpeedMeteo Stationm/sRelative wind speed
DirectionMeteo StationdegRelative wind direction
TemperatureMeteo Stationdeg CelciusAir temperature
PressureMeteo StationPaAtmospheric pressure
HumidityMeteo Station%Relative humidity
Missing or incorrect values are displayed as -999
Metereological data collected by the RV Zeeleeuw from 2004-11-24 07:38:26 to 2004-11-24 14:40:34
Time Latitude Longitude Speed Direction Temperature Pressure Humidity
2004-11-24 07:39 51°13.63 2°55.999 1.7 74 6.1 103300 80
2004-11-24 07:40 51°13.642 2°55.947 1.3 57 6 103290 80
2004-11-24 07:41 51°13.675 2°55.856 1.5 110 6 103300 80
2004-11-24 07:42 51°13.699 2°55.758 1.9 86 6 103290 80
2004-11-24 07:43 51°13.7 2°55.748 1.9 120 6 103300 80
2004-11-24 07:45 51°13.719 2°55.755 1.4 185 6 103300 81
2004-11-24 07:46 51°13.779 2°55.682 0.1 235 6 103300 81
2004-11-24 07:47 51°13.904 2°55.576 2.9 14 6 103300 81
2004-11-24 07:48 51°14.058 2°55.47 2.1 12 6.1 103300 81
2004-11-24 07:49 51°14.217 2°55.332 2.9 19 6 103300 81
2004-11-24 07:50 51°14.338 2°55.117 5 352 6.1 103300 81
2004-11-24 07:51 51°14.477 2°54.66 3.4 345 6.1 103300 81
2004-11-24 07:52 51°14.645 2°54.354 3.7 13 6.1 103310 80
2004-11-24 07:54 51°14.868 2°54.136 3.6 31 6.1 103300 80
2004-11-24 07:55 51°15.073 2°53.969 3.4 21 6.2 103300 80
2004-11-24 07:56 51°15.327 2°53.759 4.2 12 6.2 103310 80
2004-11-24 07:57 51°15.555 2°53.568 3.6 31 6.3 103310 80
2004-11-24 07:58 51°15.826 2°53.34 3.5 18 6.3 103300 80
2004-11-24 07:59 51°16.068 2°53.134 3 24 6.4 103300 80
2004-11-24 08:00 51°16.273 2°52.977 2.6 25 6.4 103300 79
2004-11-24 08:02 51°16.494 2°52.807 3.8 10 6.4 103310 79
2004-11-24 08:03 51°16.696 2°52.652 3.4 29 6.6 103300 80
2004-11-24 08:04 51°16.956 2°52.451 2.9 19 6.6 103300 79
2004-11-24 08:05 51°17.215 2°52.26 3.9 33 6.6 103300 80
2004-11-24 08:07 51°17.527 2°52.12 3.5 49 6.6 103300 79
2004-11-24 08:08 51°17.751 2°52.126 5.5 55 6.6 103290 80
2004-11-24 08:09 51°18.013 2°52.173 5.5 48 6.6 103310 80
2004-11-24 08:10 51°18.257 2°52.257 5.7 48 6.6 103300 80
2004-11-24 08:11 51°18.462 2°52.379 5.9 51 6.6 103310 80
2004-11-24 08:13 51°18.693 2°52.785 9.6 43 6.6 103280 80
2004-11-24 08:14 51°18.775 2°53.153 10 44 6.5 103260 80
2004-11-24 08:16 51°18.943 2°53.835 9.5 47 6.5 103270 80
2004-11-24 08:17 51°19.022 2°54.165 10.4 45 6.4 103270 80
2004-11-24 08:18 51°19.099 2°54.499 9.5 46 6.4 103260 80
2004-11-24 08:19 51°19.176 2°54.832 10 42 6.4 103280 79
2004-11-24 08:20 51°19.256 2°55.163 9.7 48 6.4 103280 80
2004-11-24 08:21 51°19.377 2°55.646 10.5 47 6.4 103280 79
2004-11-24 08:23 51°19.526 2°56.253 9.6 46 6.4 103280 79
2004-11-24 08:25 51°19.659 2°56.798 9.7 47 6.3 103290 80
2004-11-24 08:26 51°19.75 2°57.168 10.2 41 6.3 103290 80
2004-11-24 08:27 51°19.841 2°57.547 9.8 39 6.3 103290 80
2004-11-24 08:28 51°19.932 2°57.927 9.5 41 6.3 103290 79
2004-11-24 08:30 51°20.065 2°58.473 9.9 37 6.3 103300 80
2004-11-24 08:31 51°20.153 2°58.841 9 36 6.3 103290 80
2004-11-24 08:32 51°20.243 2°59.207 9.5 37 6.2 103290 80
2004-11-24 08:33 51°20.36 2°59.7 8.7 41 6.2 103290 80
2004-11-24 08:34 51°20.443 3°0.037 9.5 36 6.2 103290 80
2004-11-24 08:35 51°20.535 3°0.428 8.8 35 6.2 103300 80
2004-11-24 08:37 51°20.631 3°0.823 9.2 34 6.2 103290 80
2004-11-24 08:38 51°20.712 3°1.17 9.6 32 6.1 103300 81
2004-11-24 08:39 51°20.792 3°1.499 9.4 38 6.1 103290 81
2004-11-24 08:40 51°20.913 3°1.998 9.5 45 6 103280 80
2004-11-24 08:41 51°20.996 3°2.349 9.5 39 6 103280 80
2004-11-24 08:42 51°21.116 3°2.839 10 39 6 103280 80
2004-11-24 08:43 51°21.202 3°3.191 9.4 38 5.9 103290 80
2004-11-24 08:45 51°21.303 3°3.613 9.4 41 5.9 103280 80
2004-11-24 08:46 51°21.387 3°3.951 9.4 35 5.9 103290 80
2004-11-24 08:47 51°21.477 3°4.324 9.5 43 5.9 103280 80
2004-11-24 08:48 51°21.565 3°4.687 9.2 36 5.9 103270 80
2004-11-24 08:49 51°21.651 3°5.039 9 39 6 103290 80
2004-11-24 08:50 51°21.736 3°5.472 9.8 38 6 103300 80
2004-11-24 08:52 51°21.869 3°6.177 9.3 31 6.2 103280 80
2004-11-24 08:53 51°21.943 3°6.525 8.9 35 6.2 103280 79
2004-11-24 08:54 51°22.062 3°6.871 9.4 38 6.1 103290 78
2004-11-24 08:55 51°22.137 3°7.287 9.9 24 6 103300 79
2004-11-24 08:56 51°22.184 3°7.718 9.4 26 6 103300 79
2004-11-24 08:57 51°22.228 3°8.099 9.3 20 5.9 103280 80
2004-11-24 08:58 51°22.254 3°8.508 9.7 24 5.8 103290 80
2004-11-24 08:59 51°22.254 3°8.96 10.4 23 5.7 103290 80
2004-11-24 09:00 51°22.263 3°9.432 10.1 27 5.7 103280 80
2004-11-24 09:01 51°22.246 3°9.82 9.8 21 5.6 103290 80
2004-11-24 09:02 51°22.194 3°10.2 9.9 21 5.6 103290 80
2004-11-24 09:04 51°22.144 3°10.743 9.6 24 5.6 103280 79
2004-11-24 09:05 51°22.218 3°11.214 10.5 32 5.7 103290 79
2004-11-24 09:06 51°22.297 3°11.604 9.4 27 5.7 103280 79
2004-11-24 09:07 51°22.389 3°12.089 9.4 29 5.6 103290 79
2004-11-24 09:08 51°22.463 3°12.483 8.4 30 5.5 103300 79
2004-11-24 09:10 51°22.563 3°13.046 9.4 32 5.6 103300 80
2004-11-24 09:11 51°22.647 3°13.545 9.4 27 5.6 103290 80
2004-11-24 09:12 51°22.712 3°13.931 8.8 25 5.5 103280 80
2004-11-24 09:13 51°22.817 3°14.469 9.5 34 5.5 103290 80
2004-11-24 09:14 51°22.926 3°14.901 9.2 36 5.4 103280 80
2004-11-24 09:16 51°23.12 3°15.182 5.1 43 5.4 103280 80
2004-11-24 09:17 51°23.349 3°15.275 5.4 34 5.5 103300 81
2004-11-24 09:18 51°23.583 3°15.356 5.6 27 5.6 103300 81
2004-11-24 09:19 51°23.857 3°15.451 4.6 40 5.6 103300 81
2004-11-24 09:20 51°24.1 3°15.501 5.4 34 5.7 103310 80
2004-11-24 09:21 51°24.332 3°15.519 3.3 37 5.6 103310 79
2004-11-24 09:22 51°24.582 3°15.379 3.1 1 5.7 103310 80
2004-11-24 09:23 51°24.761 3°15.073 5.3 327 5.8 103310 80
2004-11-24 09:25 51°24.722 3°14.676 6.7 327 5.9 103300 79
2004-11-24 09:26 51°24.694 3°14.366 7.5 328 6 103300 79
2004-11-24 09:27 51°24.67 3°14.033 7.5 318 6 103300 79
2004-11-24 09:28 51°24.643 3°13.648 6 329 6 103290 78
2004-11-24 09:29 51°24.616 3°13.339 7.5 317 6.1 103290 78
2004-11-24 09:30 51°24.579 3°12.89 7.9 325 6.1 103290 78
2004-11-24 09:31 51°24.554 3°12.58 7.8 328 6.1 103300 78
2004-11-24 09:33 51°24.522 3°12.136 6.8 329 6.1 103300 78
2004-11-24 09:34 51°24.499 3°11.828 5.9 334 6.1 103300 78
2004-11-24 09:35 51°24.476 3°11.493 6.5 332 6.2 103300 78
2004-11-24 09:36 51°24.448 3°11.119 6.9 321 6.2 103300 77
2004-11-24 09:37 51°24.425 3°10.779 7.2 327 6.2 103300 76
2004-11-24 09:38 51°24.397 3°10.431 6.8 329 6.2 103290 76
2004-11-24 09:39 51°24.364 3°10.011 6.9 325 6.2 103290 76
2004-11-24 09:40 51°24.337 3°9.693 6.4 323 6.3 103280 77
2004-11-24 09:41 51°24.307 3°9.362 6.5 327 6.3 103290 77
2004-11-24 09:43 51°24.282 3°8.997 7.6 319 6.4 103290 77
2004-11-24 09:44 51°24.257 3°8.673 6.6 318 6.4 103290 76
2004-11-24 09:45 51°24.23 3°8.269 6.4 325 6.4 103290 75
2004-11-24 09:46 51°24.205 3°7.926 6.7 322 6.5 103280 75
2004-11-24 09:47 51°24.183 3°7.496 6.4 324 6.5 103280 75
2004-11-24 09:49 51°24.159 3°6.959 5.9 333 6.6 103280 75
2004-11-24 09:50 51°24.147 3°6.573 6.1 326 6.6 103280 75
2004-11-24 09:51 51°24.14 3°6.207 6.1 324 6.6 103280 75
2004-11-24 09:52 51°24.16 3°5.837 4.5 326 6.6 103280 75
2004-11-24 09:53 51°24.263 3°5.521 4.7 332 6.7 103290 75
2004-11-24 09:55 51°24.361 3°5.211 4.3 332 6.7 103300 75
2004-11-24 09:56 51°24.468 3°4.892 4.2 336 6.8 103290 75
2004-11-24 09:57 51°24.574 3°4.605 3.9 332 6.9 103290 75
2004-11-24 09:58 51°24.686 3°4.195 4.5 336 6.9 103290 74
2004-11-24 09:59 51°24.797 3°3.821 4.2 333 7 103290 75
2004-11-24 10:00 51°24.898 3°3.465 5.5 342 7.1 103290 75
2004-11-24 10:01 51°24.981 3°3.156 6.5 320 7.1 103280 74
2004-11-24 10:02 51°25.045 3°2.835 5.6 322 7.1 103280 73
2004-11-24 10:04 51°25.185 3°2.461 4.7 335 7.1 103280 72
2004-11-24 10:05 51°25.308 3°2.122 5.1 319 7.1 103290 72
2004-11-24 10:06 51°25.427 3°1.776 5.2 330 7.1 103280 72
2004-11-24 10:07 51°25.534 3°1.471 4.9 331 7.1 103290 72
2004-11-24 10:08 51°25.638 3°1.174 5.2 317 7.1 103280 72
2004-11-24 10:09 51°25.753 3°0.848 4.5 320 7.1 103280 72
2004-11-24 10:10 51°25.92 3°0.528 4 340 7.1 103280 72
2004-11-24 10:11 51°26.149 3°0.331 3.3 3 7.2 103290 74
2004-11-24 10:12 51°26.393 3°0.266 3.6 40 7.2 103280 73
2004-11-24 10:14 51°26.712 3°0.306 4.5 39 7.1 103280 72
2004-11-24 10:15 51°26.96 3°0.325 4 41 7 103270 73
2004-11-24 10:16 51°27.266 3°0.342 3.4 54 7 103280 73
2004-11-24 10:17 51°27.529 3°0.37 3.7 35 6.9 103270 72
2004-11-24 10:18 51°27.821 3°0.403 4.7 36 7 103270 73
2004-11-24 10:19 51°28.089 3°0.435 4.2 48 7 103270 74
2004-11-24 10:20 51°28.332 3°0.463 3.6 46 7 103270 73
2004-11-24 10:21 51°28.604 3°0.492 3.3 40 7 103280 73
2004-11-24 10:22 51°28.855 3°0.527 4.1 44 7.1 103280 73
2004-11-24 10:24 51°29.128 3°0.561 2.7 49 7.1 103280 72
2004-11-24 10:25 51°29.391 3°0.595 3.3 43 7.1 103280 71
2004-11-24 10:26 51°29.671 3°0.626 3.4 43 7.2 103270 72
2004-11-24 10:27 51°29.987 3°0.662 3.9 30 7.3 103270 72
2004-11-24 10:28 51°30.27 3°0.693 4.7 35 7.4 103270 73
2004-11-24 10:29 51°30.51 3°0.719 3.8 31 7.4 103270 73
2004-11-24 10:30 51°30.798 3°0.751 3.8 25 7.4 103270 73
2004-11-24 10:32 51°31.158 3°0.793 4.1 44 7.4 103280 73
2004-11-24 10:33 51°31.517 3°0.835 3.9 31 7.4 103260 72
2004-11-24 10:35 51°31.912 3°0.879 4.2 40 7.3 103270 70
2004-11-24 10:36 51°32.147 3°0.907 3.1 37 7.3 103280 70
2004-11-24 10:37 51°32.467 3°0.95 3.5 48 7.4 103270 70
2004-11-24 10:38 51°32.795 3°0.989 3.7 32 7.4 103270 69
2004-11-24 10:39 51°33.048 3°1.014 3.8 41 7.4 103270 70
2004-11-24 10:41 51°33.337 3°1.042 3 41 7.4 103270 70
2004-11-24 10:42 51°33.594 3°1.066 4.3 30 7.4 103270 69
2004-11-24 10:43 51°33.902 3°1.093 3.1 30 7.5 103290 70
2004-11-24 10:44 51°34.141 3°1.079 3.4 336 7.5 103270 69
2004-11-24 10:45 51°34.347 3°0.867 4.6 318 7.6 103270 70
2004-11-24 10:46 51°34.388 3°0.416 9.3 321 7.6 103250 69
2004-11-24 10:47 51°34.312 3°0.09 9 331 7.7 103260 69
2004-11-24 10:49 51°34.218 2°59.758 10.4 334 7.7 103240 69
2004-11-24 10:50 51°34.089 2°59.394 10.5 340 7.7 103250 69
2004-11-24 10:51 51°33.961 2°59.108 9.7 340 7.8 103260 70
2004-11-24 10:52 51°33.794 2°58.724 10.3 336 7.8 103250 69
2004-11-24 10:53 51°33.678 2°58.453 11.1 337 7.8 103260 69
2004-11-24 10:54 51°33.561 2°58.177 10.4 332 7.8 103240 68
2004-11-24 10:55 51°33.427 2°57.859 10.7 338 7.9 103240 69
2004-11-24 10:57 51°33.254 2°57.637 11.4 345 7.9 103250 69
2004-11-24 10:58 51°33.072 2°57.423 11.9 350 7.8 103240 69
2004-11-24 10:59 51°32.878 2°57.213 11.6 342 7.8 103230 69
2004-11-24 11:00 51°32.685 2°57.002 11.9 348 7.9 103240 70
2004-11-24 11:01 51°32.504 2°56.798 11 345 7.8 103240 69
2004-11-24 11:02 51°32.255 2°56.523 11.5 343 7.8 103240 68
2004-11-24 11:03 51°32.086 2°56.335 10.7 342 7.9 103240 69
2004-11-24 11:04 51°31.917 2°56.15 10.5 343 7.9 103240 70
2004-11-24 11:05 51°31.748 2°55.964 10.6 341 7.9 103240 70
2004-11-24 11:06 51°31.572 2°55.773 11 348 7.9 103240 70
2004-11-24 11:07 51°31.408 2°55.59 10.7 344 7.9 103220 70
2004-11-24 11:08 51°31.237 2°55.402 10.8 339 7.9 103220 69
2004-11-24 11:10 51°31.099 2°55.101 8.3 325 7.9 103220 70
2004-11-24 11:11 51°31.05 2°54.78 8.1 332 7.8 103230 70
2004-11-24 11:12 51°31.006 2°54.459 8.8 330 7.8 103230 71
2004-11-24 11:13 51°30.963 2°54.135 8.7 336 7.8 103250 70
2004-11-24 11:14 51°30.919 2°53.771 8.5 329 7.8 103240 71
2004-11-24 11:15 51°30.878 2°53.42 7.3 333 7.8 103240 70
2004-11-24 11:16 51°30.83 2°53.021 8.2 332 7.8 103230 71
2004-11-24 11:17 51°30.786 2°52.683 8.4 333 7.8 103230 71
2004-11-24 11:18 51°30.73 2°52.257 7.8 329 7.8 103220 70
2004-11-24 11:19 51°30.688 2°51.914 9.1 328 7.7 103240 70
2004-11-24 11:20 51°30.646 2°51.57 8.3 333 7.8 103220 70
2004-11-24 11:22 51°30.537 2°51.078 10.2 333 7.8 103230 70
2004-11-24 11:23 51°30.348 2°50.86 11.5 335 7.9 103210 70
2004-11-24 11:24 51°30.175 2°50.691 10.6 344 7.9 103230 70
2004-11-24 11:26 51°29.936 2°50.482 9.7 344 7.9 103220 69
2004-11-24 11:27 51°29.76 2°50.321 10.3 338 8 103220 69
2004-11-24 11:28 51°29.59 2°50.157 9.7 344 8 103220 70
2004-11-24 11:29 51°29.421 2°49.993 9.8 344 7.9 103220 68
2004-11-24 11:30 51°29.191 2°49.77 10.6 341 7.9 103220 68
2004-11-24 11:31 51°28.926 2°49.541 9.5 342 8 103210 69
2004-11-24 11:33 51°28.73 2°49.371 9.1 338 8 103210 70
2004-11-24 11:34 51°28.535 2°49.198 10.3 342 8 103220 70
2004-11-24 11:35 51°28.335 2°49.022 10.6 342 7.9 103210 69
2004-11-24 11:36 51°28.141 2°48.846 9.4 343 7.9 103210 70
2004-11-24 11:37 51°27.969 2°48.691 9.5 343 7.9 103210 70
2004-11-24 11:39 51°27.683 2°48.445 9.3 344 7.9 103220 71
2004-11-24 11:40 51°27.474 2°48.268 9.8 341 7.9 103210 70
2004-11-24 11:41 51°27.293 2°48.114 9.8 343 7.9 103220 71
2004-11-24 11:42 51°27.084 2°47.932 10.4 344 7.8 103210 68
2004-11-24 11:43 51°26.835 2°47.727 11 340 7.9 103220 68
2004-11-24 11:45 51°26.564 2°47.521 10.4 348 7.9 103220 68
2004-11-24 11:46 51°26.336 2°47.346 10 349 8 103210 68
2004-11-24 11:47 51°26.126 2°47.179 10.2 340 8 103210 69
2004-11-24 11:48 51°25.941 2°47.033 9.8 344 8 103210 69
2004-11-24 11:49 51°25.731 2°46.866 10 347 8 103200 70
2004-11-24 11:50 51°25.54 2°46.715 9.9 350 8 103220 70
2004-11-24 11:51 51°25.358 2°46.57 10.2 344 8 103210 70
2004-11-24 11:53 51°25.126 2°46.383 9.6 346 8 103200 70
2004-11-24 11:54 51°24.932 2°46.268 11 354 8 103220 69
2004-11-24 11:55 51°24.723 2°46.23 10.2 350 8 103210 69
2004-11-24 11:56 51°24.521 2°46.191 10.2 350 8 103210 69
2004-11-24 11:57 51°24.225 2°46.13 9.8 354 8 103200 69
2004-11-24 11:58 51°23.968 2°46.074 11.1 355 8 103210 69
2004-11-24 11:59 51°23.715 2°46.031 11.2 347 8 103210 69
2004-11-24 12:00 51°23.506 2°46.019 10 350 8 103200 69
2004-11-24 12:02 51°23.199 2°45.997 10.8 355 8.1 103190 69
2004-11-24 12:03 51°22.985 2°45.982 11.4 349 8 103200 68
2004-11-24 12:04 51°22.757 2°45.963 10.2 352 8.1 103200 67
2004-11-24 12:05 51°22.541 2°45.95 10.1 351 8.1 103200 67
2004-11-24 12:06 51°22.331 2°45.934 10.5 353 8.1 103190 67
2004-11-24 12:07 51°22.121 2°45.913 9.9 348 8.1 103190 67
2004-11-24 12:08 51°21.875 2°45.905 9.5 354 8.2 103190 68
2004-11-24 12:10 51°21.525 2°45.908 10.9 347 8.2 103190 69
2004-11-24 12:11 51°21.277 2°45.91 10.3 350 8.2 103190 69
2004-11-24 12:12 51°21.055 2°45.913 10.4 351 8.3 103190 69
2004-11-24 12:13 51°20.805 2°45.918 10.8 346 8.2 103190 68
2004-11-24 12:14 51°20.555 2°45.92 10.2 346 8.3 103190 68
2004-11-24 12:16 51°20.127 2°45.9 7.2 344 8.3 103190 66
2004-11-24 12:18 51°20.015 2°45.84 4.9 317 8.3 103190 67
2004-11-24 12:19 51°19.957 2°45.808 2.9 298 8.3 103200 67
2004-11-24 12:20 51°19.959 2°45.791 1.9 253 8.4 103200 67
2004-11-24 12:21 51°19.969 2°45.785 3.5 280 8.4 103190 66
2004-11-24 12:22 51°19.974 2°45.79 4.3 288 8.4 103200 67
2004-11-24 12:24 51°19.977 2°45.797 4 286 8.5 103190 66
2004-11-24 12:25 51°19.969 2°45.799 4.7 298 8.6 103200 66
2004-11-24 12:26 51°19.959 2°45.795 4.4 296 8.6 103200 66
2004-11-24 12:27 51°19.953 2°45.792 4 297 8.7 103200 66
2004-11-24 12:28 51°19.95 2°45.793 3.5 281 8.7 103190 66
2004-11-24 12:30 51°19.95 2°45.792 3.9 293 8.7 103200 66
2004-11-24 12:31 51°19.952 2°45.795 3.7 291 8.7 103190 66
2004-11-24 12:32 51°19.953 2°45.804 3.7 293 8.7 103190 66
2004-11-24 12:33 51°19.954 2°45.823 4.3 309 8.7 103190 66
2004-11-24 12:34 51°19.956 2°45.849 4.3 318 8.6 103180 65
2004-11-24 12:35 51°19.957 2°45.876 4.6 329 8.6 103180 65
2004-11-24 12:37 51°19.959 2°45.907 4.1 339 8.5 103180 64
2004-11-24 12:38 51°19.962 2°45.938 4.2 354 8.6 103180 65
2004-11-24 12:39 51°19.966 2°45.973 4.1 351 8.7 103180 65
2004-11-24 12:40 51°19.975 2°46.015 4 336 8.6 103170 65
2004-11-24 12:41 51°19.987 2°46.05 4.2 327 8.6 103170 65
2004-11-24 12:42 51°19.997 2°46.071 3.9 316 8.6 103160 65
2004-11-24 12:43 51°20.006 2°46.089 4.4 315 8.7 103170 66
2004-11-24 12:45 51°20.017 2°46.11 4.1 309 8.8 103170 66
2004-11-24 12:46 51°20.027 2°46.126 4.2 304 8.9 103160 66
2004-11-24 12:47 51°20.039 2°46.141 4.4 290 8.9 103170 65
2004-11-24 12:48 51°20.051 2°46.157 4.6 293 8.9 103170 64
2004-11-24 12:49 51°20.064 2°46.17 3.8 287 8.9 103170 65
2004-11-24 12:50 51°20.034 2°46.121 5 301 8.8 103160 64
2004-11-24 12:51 51°19.96 2°45.944 6.5 42 8.8 103160 65
2004-11-24 12:52 51°19.91 2°45.791 5.5 297 8.8 103160 65
2004-11-24 12:53 51°19.894 2°45.718 4 235 8.7 103150 65
2004-11-24 12:54 51°19.91 2°45.711 4.6 239 8.6 103160 64
2004-11-24 12:56 51°19.934 2°45.705 4.2 240 8.5 103150 65
2004-11-24 12:57 51°19.945 2°45.698 3.5 256 8.5 103150 65
2004-11-24 12:58 51°19.95 2°45.696 4.9 275 8.6 103150 66
2004-11-24 12:59 51°19.95 2°45.703 4.2 291 8.6 103150 66
2004-11-24 13:00 51°19.949 2°45.714 4.8 303 8.7 103150 67
2004-11-24 13:02 51°19.935 2°45.729 6.4 334 8.7 103160 65
2004-11-24 13:03 51°19.814 2°45.698 6.6 319 8.7 103140 63
2004-11-24 13:04 51°19.648 2°45.471 7.8 330 8.6 103130 64
2004-11-24 13:05 51°19.481 2°45.253 9.3 331 8.5 103130 64
2004-11-24 13:06 51°19.311 2°45.031 9.2 330 8.5 103140 64
2004-11-24 13:07 51°19.157 2°44.826 8.4 333 8.4 103130 64
2004-11-24 13:09 51°18.927 2°44.525 9.5 336 8.4 103130 65
2004-11-24 13:10 51°18.758 2°44.325 8.2 335 8.4 103130 64
2004-11-24 13:11 51°18.602 2°44.144 6.9 324 8.4 103140 64
2004-11-24 13:12 51°18.558 2°44.093 4 240 8.5 103140 64
2004-11-24 13:13 51°18.569 2°44.08 3.9 236 8.4 103140 63
2004-11-24 13:14 51°18.587 2°44.07 3.8 233 8.4 103140 63
2004-11-24 13:16 51°18.609 2°44.061 4 230 8.5 103140 66
2004-11-24 13:17 51°18.624 2°44.057 4.1 243 8.4 103140 64
2004-11-24 13:18 51°18.643 2°44.054 3.9 247 8.4 103130 64
2004-11-24 13:19 51°18.655 2°44.048 5.2 261 8.5 103140 64
2004-11-24 13:20 51°18.639 2°44.039 5.8 42 8.5 103140 64
2004-11-24 13:21 51°18.519 2°43.967 8.2 338 8.6 103130 64
2004-11-24 13:22 51°18.298 2°43.812 9.4 336 8.6 103120 65
2004-11-24 13:23 51°18.069 2°43.634 9.4 337 8.7 103120 64
2004-11-24 13:25 51°17.822 2°43.44 10.7 335 8.7 103120 64
2004-11-24 13:26 51°17.606 2°43.261 9.8 336 8.7 103120 64
2004-11-24 13:27 51°17.367 2°43.059 9.2 338 8.7 103120 62
2004-11-24 13:28 51°17.243 2°42.957 6.3 323 8.7 103120 62
2004-11-24 13:29 51°17.193 2°42.927 4.5 306 8.7 103120 62
2004-11-24 13:30 51°17.19 2°42.919 4.4 306 8.8 103130 62
2004-11-24 13:31 51°17.187 2°42.91 3.3 299 8.9 103120 62
2004-11-24 13:32 51°17.187 2°42.9 4.4 298 9 103120 62
2004-11-24 13:33 51°17.186 2°42.888 4.4 43 9.1 103130 62
2004-11-24 13:34 51°17.189 2°42.878 5.2 313 9.1 103120 61
2004-11-24 13:36 51°17.186 2°42.861 4.9 312 9.1 103120 60
2004-11-24 13:37 51°16.98 2°42.752 10.5 344 9.1 103110 59
2004-11-24 13:38 51°16.776 2°42.729 10.5 349 9 103100 61
2004-11-24 13:39 51°16.489 2°42.715 10.5 348 9 103110 63
2004-11-24 13:40 51°16.239 2°42.687 11.4 347 8.9 103110 64
2004-11-24 13:42 51°15.99 2°42.655 8.8 345 8.9 103110 63
2004-11-24 13:43 51°15.913 2°42.625 4.4 301 8.9 103120 62
2004-11-24 13:44 51°15.914 2°42.609 2.7 254 8.9 103120 62
2004-11-24 13:45 51°15.921 2°42.593 3.6 242 8.9 103120 64
2004-11-24 13:46 51°15.929 2°42.571 4.5 262 8.8 103120 63
2004-11-24 13:47 51°15.934 2°42.55 4.9 271 8.8 103120 64
2004-11-24 13:48 51°15.935 2°42.529 4.4 292 8.8 103120 65
2004-11-24 13:49 51°15.933 2°42.517 4.6 308 8.8 103120 63
2004-11-24 13:50 51°15.887 2°42.544 7.9 6 8.9 103120 62
2004-11-24 13:51 51°15.797 2°42.814 11.3 12 8.8 103110 63
2004-11-24 13:52 51°15.717 2°43.149 12 23 8.7 103100 63
2004-11-24 13:53 51°15.664 2°43.656 11.3 21 8.7 103100 63
2004-11-24 13:55 51°15.626 2°44.048 10.9 21 8.7 103100 62
2004-11-24 13:56 51°15.584 2°44.457 11.6 28 8.7 103090 62
2004-11-24 13:57 51°15.568 2°44.827 10.4 28 8.6 103100 63
2004-11-24 13:58 51°15.563 2°45.212 11.3 23 8.6 103090 62
2004-11-24 13:59 51°15.539 2°45.638 11.7 31 8.6 103100 61
2004-11-24 14:00 51°15.516 2°46.013 12.1 28 8.5 103080 61
2004-11-24 14:01 51°15.489 2°46.411 11.2 28 8.6 103080 62
2004-11-24 14:02 51°15.459 2°46.818 10.8 34 8.5 103080 58
2004-11-24 14:03 51°15.44 2°47.178 10.3 30 8.5 103070 60
2004-11-24 14:04 51°15.422 2°47.533 11 29 8.5 103080 61
2004-11-24 14:05 51°15.4 2°47.884 10 26 8.6 103080 63
2004-11-24 14:06 51°15.376 2°48.253 10.6 23 8.6 103080 65
2004-11-24 14:07 51°15.362 2°48.608 10.2 23 8.6 103080 64
2004-11-24 14:08 51°15.344 2°48.976 9.5 24 8.6 103090 64
2004-11-24 14:09 51°15.324 2°49.418 10.7 27 8.6 103090 65
2004-11-24 14:10 51°15.308 2°49.767 10 18 8.6 103090 66
2004-11-24 14:12 51°15.293 2°50.191 10.9 19 8.7 103090 67
2004-11-24 14:13 51°15.28 2°50.608 10.6 22 8.6 103090 66
2004-11-24 14:14 51°15.272 2°51.013 10.4 21 8.6 103090 65
2004-11-24 14:15 51°15.265 2°51.398 10.4 22 8.6 103090 65
2004-11-24 14:16 51°15.234 2°51.836 10.7 16 8.6 103090 65
2004-11-24 14:17 51°15.168 2°52.226 10.1 22 8.6 103090 64
2004-11-24 14:18 51°15.113 2°52.571 11.4 20 8.6 103080 64
2004-11-24 14:19 51°15.057 2°52.915 9.7 17 8.6 103090 64
2004-11-24 14:20 51°15 2°53.257 11.6 11 8.6 103100 64
2004-11-24 14:21 51°14.914 2°53.636 11.5 12 8.6 103090 62
2004-11-24 14:23 51°14.806 2°54.026 11.8 13 8.6 103100 62
2004-11-24 14:24 51°14.673 2°54.348 10.2 17 8.6 103100 59
2004-11-24 14:25 51°14.565 2°54.614 10.1 9 8.6 103100 61
2004-11-24 14:26 51°14.452 2°54.864 9.7 15 8.5 103110 61
2004-11-24 14:27 51°14.341 2°55.121 6.7 11 8.5 103100 62
2004-11-24 14:28 51°14.277 2°55.248 5.7 12 8.5 103110 63
2004-11-24 14:29 51°14.218 2°55.331 5.8 2 8.5 103110 64
2004-11-24 14:30 51°14.155 2°55.391 6.4 5 8.5 103110 65
2004-11-24 14:31 51°14.065 2°55.459 5.7 4 8.5 103100 65
2004-11-24 14:32 51°13.977 2°55.526 5.9 5 8.5 103100 64
2004-11-24 14:33 51°13.885 2°55.593 6.6 356 8.5 103100 65
2004-11-24 14:34 51°13.789 2°55.66 6.2 4 8.5 103110 64
2004-11-24 14:35 51°13.717 2°55.765 5.5 25 8.5 103100 63
2004-11-24 14:36 51°13.669 2°55.892 5.1 16 8.5 103110 63
2004-11-24 14:37 51°13.635 2°55.994 5.9 23 8.4 103110 62
2004-11-24 14:38 51°13.621 2°56.05 4.4 38 8.4 103110 61
2004-11-24 14:39 51°13.617 2°56.061 2.7 44 8.4 103110 60